Location: Jackson
(42.2460°N, 84.4010°W)
Time: 03:13:56
(UTC-05:00)

A-11 Canister half - All Passes

Search period start: 15 February 2026 00:00
Search period end: 25 February 2026 00:00
Orbit: 1525 x 1682 km, 47.3° (Epoch: 13 February)

Date Brightness Start Highest point End Pass type
(mag) Time Alt. Az. Time Alt. Az. Time Alt. Az.
15 Feb - 01:44:09 10° W 01:51:15 25° SW 01:58:30 10° S night (unlit)
15 Feb - 15:01:04 10° SSE 15:06:12 16° SE 15:11:17 10° E daylight
15 Feb - 17:00:32 10° SW 17:09:38 57° SE 17:18:38 10° ENE daylight
15 Feb - 19:05:09 10° WSW 19:14:30 74° NNW 19:23:50 10° ENE visible
15 Feb - 21:11:00 10° WNW 21:20:17 67° N 21:29:40 10° E visible
15 Feb - 23:16:16 10° WNW 23:25:34 75° SSW 23:35:03 10° SE visible
16 Feb - 01:22:11 10° WNW 01:29:29 26° SW 01:36:57 10° S night (unlit)
16 Feb - 14:39:48 10° SSE 14:44:28 15° SE 14:49:05 10° E daylight
16 Feb - 16:38:47 10° SW 16:47:50 54° SE 16:56:46 10° ENE daylight
16 Feb - 18:43:16 10° WSW 18:52:38 76° NNW 19:01:59 10° ENE visible
16 Feb - 20:49:08 10° WNW 20:58:24 67° N 21:07:46 10° E visible
16 Feb - 22:54:26 10° WNW 23:03:45 77° SSW 23:13:14 10° SE visible
17 Feb - 01:00:14 10° WNW 01:07:43 28° SW 01:15:22 10° S visible
17 Feb - 14:18:36 10° SSE 14:22:44 14° ESE 14:26:48 10° E daylight
17 Feb - 16:17:02 10° SSW 16:26:03 52° SE 16:34:55 10° ENE daylight
17 Feb - 18:21:23 10° WSW 18:30:47 77° NNW 18:40:08 10° ENE visible
17 Feb - 20:27:16 10° WNW 20:36:32 66° N 20:45:53 10° E visible
17 Feb - 22:32:36 10° WNW 22:41:54 80° SSW 22:51:24 10° SE visible
18 Feb - 00:38:17 10° WNW 00:45:58 29° SW 00:53:46 10° S visible
18 Feb - 13:57:33 10° SE 14:01:00 12° ESE 14:04:25 10° E daylight
18 Feb - 15:55:18 10° SSW 16:04:15 49° SE 16:13:04 10° ENE daylight
18 Feb - 17:59:31 10° WSW 18:08:56 79° NNW 18:18:17 10° ENE daylight
18 Feb - 20:05:24 10° WNW 20:14:40 65° N 20:23:58 10° E visible
18 Feb - 22:10:46 10° WNW 22:20:05 82° SSW 22:29:34 10° ESE visible
19 Feb - 00:16:23 10° WNW 00:24:11 31° SW 00:32:10 10° S visible
19 Feb - 13:36:41 10° SE 13:39:15 11° ESE 13:41:48 10° ESE daylight
19 Feb - 15:33:35 10° SSW 15:42:28 47° SE 15:51:12 10° ENE daylight
19 Feb - 17:37:39 10° WSW 17:47:05 81° NNW 17:56:26 10° ENE daylight
19 Feb - 19:43:31 10° WNW 19:52:48 65° N 20:02:05 10° E visible
19 Feb - 21:48:55 10° WNW 21:58:16 85° SSW 22:07:43 10° ESE visible
19 Feb - 23:54:28 10° WNW 00:02:25 33° SW 00:10:31 10° SSE visible
20 Feb - 13:16:33 10° SE 13:17:31 10° ESE 13:18:31 10° ESE daylight
20 Feb - 15:11:51 10° SSW 15:20:41 45° SE 15:29:20 10° ENE daylight
20 Feb - 17:15:47 10° WSW 17:25:14 82° NNW 17:34:35 10° ENE daylight
20 Feb - 19:21:38 10° W 19:30:55 65° N 19:40:12 10° E visible
20 Feb - 21:27:05 10° WNW 21:36:25 87° SSW 21:45:53 10° ESE visible
20 Feb - 23:32:34 10° WNW 23:40:39 35° SW 23:48:53 10° SSE visible
21 Feb - 14:50:08 10° SSW 14:58:53 43° SE 15:07:28 10° ENE daylight
21 Feb - 16:53:54 10° WSW 17:03:23 84° NNW 17:12:45 10° ENE daylight
21 Feb - 18:59:45 10° W 19:09:02 65° N 19:18:19 10° E visible
21 Feb - 21:05:14 10° WNW 21:14:35 89° SSW 21:24:01 10° ESE visible
21 Feb - 23:10:40 10° WNW 23:18:52 37° SW 23:27:14 10° SSE visible
22 Feb - 14:28:26 10° SSW 14:37:07 41° SE 14:45:35 10° ENE daylight
22 Feb - 16:32:02 10° WSW 16:41:32 86° NNW 16:50:54 10° ENE daylight
22 Feb - 18:37:52 10° W 18:47:10 65° N 18:56:25 10° E visible
22 Feb - 20:43:24 10° WNW 20:52:45 88° NNE 21:02:11 10° ESE visible
22 Feb - 22:48:46 10° WNW 22:57:06 39° SW 23:05:33 10° SSE visible
23 Feb - 14:06:45 10° SSW 14:15:19 39° SE 14:23:42 10° ENE daylight
23 Feb - 16:10:10 10° WSW 16:19:41 89° NNW 16:29:03 10° ENE daylight
23 Feb - 18:15:59 10° W 18:25:17 65° N 18:34:33 10° E daylight
23 Feb - 20:21:33 10° WNW 20:30:54 86° NNE 20:40:19 10° ESE visible
23 Feb - 22:26:53 10° WNW 22:35:19 41° SW 22:43:53 10° SSE visible
24 Feb - 13:45:04 10° SSW 13:53:33 37° SE 14:01:49 10° ENE daylight
24 Feb - 15:48:19 10° WSW 15:57:51 89° SSE 16:07:13 10° ENE daylight
24 Feb - 17:54:04 10° W 18:03:25 65° N 18:12:40 10° E daylight
24 Feb - 19:59:42 10° WNW 20:09:05 84° NNE 20:18:28 10° ESE visible
24 Feb - 22:05:01 10° WNW 22:13:33 43° SW 22:22:11 10° SSE visible
